Natchitoches, LA

8:31 AM CDT on October 18, 2017 (GMT -0500)
Natchitoches Regional

Weather History for KIER - December, 2013

Change the Weather History Date:

Monday, December 23, 2013

  Actual Average Record
Temperature  
Mean Temperature 40 °F -  
Max Temperature 49 °F 59 °F 80 °F (2015)
Min Temperature 30 °F 38 °F 5 °F (1989)
Degree Days  
Heating Degree Days 26    
Moisture  
Dew Point 31 °F    
Average Humidity 76    
Maximum Humidity 100    
Minimum Humidity 48    
Precipitation  
Precipitation 0.00 in - - ()
Sea Level Pressure  
Sea Level Pressure 30.45 in    
Wind  
Wind Speed 9 mph (North)    
Max Wind Speed 13 mph    
Max Gust Speed 17 mph    
Visibility 10 miles    
Events      
Averages and records for this station are not official NWS values.
T = Trace of Precipitation, MM = Missing Value Source: NWS Daily Summary

Daily Weather History Graph

Daily Weather History Graph

Search for Another Location

Airport or City:

Trip Planner

Search our weather history database for the weather conditions in past years. The results will help you decide how hot, cold, wet, or windy it might be!

Date:

Astronomy

Dec. 23, 2013 Rise Set
Actual Time 7:09 AM CST 5:14 PM CST
Civil Twilight 6:42 AM CST 5:41 PM CST
Nautical Twilight 6:11 AM CST 6:11 PM CST
Astronomical Twilight 5:42 AM CST 6:41 PM CST
Moon 11:03 PM CST (12/23) 10:54 AM CST (12/23)
Length of Visible Light 10h 58m
Length of Day
10h 04m
Waning Gibbous, 68% of the Moon is Illuminated
Dec 23
Waning Gibbous
Dec 25
Last Quarter
Jan 1
New
Jan 7
First Quarter
Jan 15
Full

Hourly Weather History & Observations

Time (CST) Temp. Windchill Dew Point Humidity Pressure Visibility Wind Dir Wind Speed Gust Speed Precip Events Conditions
12:15 AM 38.3 °F 30.5 °F 32.0 °F 78% 30.33 in 10.0 mi NNW 12.7 mph 16.1 mph N/A   Overcast
12:35 AM 38.3 °F 30.9 °F 32.0 °F 78% 30.33 in 10.0 mi NNW 11.5 mph - N/A   Overcast
12:55 AM 38.1 °F 31.7 °F 32.0 °F 79% 30.34 in 10.0 mi North 9.2 mph - N/A   Overcast
1:15 AM 37.9 °F 31.5 °F 32.0 °F 79% 30.34 in 10.0 mi North 9.2 mph - N/A   Overcast
1:35 AM 37.8 °F 29.8 °F 32.0 °F 80% 30.34 in 10.0 mi North 12.7 mph 16.1 mph N/A   Overcast
1:55 AM 37.6 °F 30.0 °F 32.0 °F 80% 30.34 in 10.0 mi NNW 11.5 mph - N/A   Overcast
2:15 AM 37.6 °F 31.6 °F 32.0 °F 80% 30.34 in 10.0 mi North 8.1 mph - N/A   Overcast
2:35 AM 37.4 °F 30.8 °F 32.0 °F 81% 30.33 in 10.0 mi North 9.2 mph - N/A   Overcast
2:55 AM 37.4 °F 30.3 °F 31.8 °F 80% 30.34 in 10.0 mi NNE 10.4 mph - N/A   Overcast
3:15 AM 37.2 °F 29.6 °F 31.5 °F 80% 30.34 in 10.0 mi NNE 11.5 mph - N/A   Overcast
3:35 AM 37.0 °F 29.8 °F 31.6 °F 81% 30.35 in 10.0 mi North 10.4 mph - N/A   Overcast
3:55 AM 36.7 °F 28.4 °F 30.9 °F 80% 30.35 in 10.0 mi North 12.7 mph - N/A   Overcast
4:15 AM 36.5 °F 28.2 °F 30.9 °F 80% 30.35 in 10.0 mi North 12.7 mph 17.3 mph N/A   Overcast
4:35 AM 36.5 °F 29.2 °F 31.3 °F 81% 30.36 in 10.0 mi North 10.4 mph - N/A   Overcast
4:55 AM 36.5 °F 29.2 °F 31.5 °F 82% 30.36 in 10.0 mi North 10.4 mph - N/A   Overcast
5:15 AM 36.5 °F 28.7 °F 30.9 °F 80% 30.36 in 10.0 mi North 11.5 mph - N/A   Overcast
5:35 AM 36.3 °F 28.4 °F 30.7 °F 80% 30.37 in 10.0 mi North 11.5 mph - N/A   Overcast
5:55 AM 36.5 °F 28.2 °F 30.7 °F 80% 30.37 in 10.0 mi North 12.7 mph - N/A   Overcast
6:15 AM 36.5 °F 29.7 °F 31.1 °F 81% 30.39 in 10.0 mi NNE 9.2 mph - N/A   Overcast
6:35 AM 35.8 °F 29.4 °F 30.6 °F 81% 30.40 in 10.0 mi NNE 8.1 mph - N/A   Overcast
6:55 AM 35.8 °F 27.8 °F 30.2 °F 80% 30.41 in 10.0 mi NNE 11.5 mph 16.1 mph N/A   Overcast
7:15 AM 35.4 °F 27.3 °F 29.7 °F 80% 30.42 in 10.0 mi NNE 11.5 mph - N/A   Overcast
7:35 AM 34.9 °F 26.2 °F 29.3 °F 80% 30.43 in 10.0 mi NNE 12.7 mph - N/A   Overcast
7:55 AM 34.9 °F 27.1 °F 29.3 °F 80% 30.44 in 10.0 mi North 10.4 mph - N/A   Overcast
8:15 AM 35.4 °F 28.4 °F 29.8 °F 80% 30.45 in 10.0 mi North 9.2 mph - N/A   Overcast
8:35 AM 35.4 °F 28.4 °F 29.5 °F 79% 30.46 in 10.0 mi North 9.2 mph - N/A   Overcast
8:55 AM 35.6 °F 28.6 °F 30.0 °F 80% 30.47 in 10.0 mi North 9.2 mph - N/A   Overcast
9:15 AM 36.0 °F 32.1 °F 30.0 °F 79% 30.49 in 10.0 mi NNE 4.6 mph - N/A   Overcast
9:35 AM 36.7 °F 29.9 °F 30.6 °F 78% 30.49 in 10.0 mi North 9.2 mph - N/A   Overcast
9:55 AM 37.2 °F 30.6 °F 30.6 °F 77% 30.49 in 10.0 mi North 9.2 mph - N/A   Overcast
10:15 AM 39.4 °F 33.8 °F 30.6 °F 71% 30.50 in 10.0 mi NE 8.1 mph - N/A   Overcast
10:35 AM 41.7 °F 38.0 °F 31.1 °F 66% 30.50 in 10.0 mi North 5.8 mph 17.3 mph N/A   Overcast
10:55 AM 41.5 °F 36.4 °F 31.1 °F 66% 30.49 in 10.0 mi NNW 8.1 mph - N/A   Mostly Cloudy
11:15 AM 42.1 °F 38.4 °F 31.1 °F 65% 30.49 in 10.0 mi North 5.8 mph - N/A   Scattered Clouds
11:35 AM 42.8 °F 38.6 °F 31.1 °F 63% 30.48 in 10.0 mi NNW 6.9 mph - N/A   Clear
11:55 AM 44.1 °F 39.0 °F 31.6 °F 62% 30.48 in 10.0 mi North 9.2 mph 16.1 mph N/A   Clear
12:15 PM 44.2 °F 41.0 °F 31.5 °F 61% 30.47 in 10.0 mi North 5.8 mph - N/A   Clear
12:35 PM 45.5 °F 41.3 °F 30.9 °F 57% 30.46 in 10.0 mi NE 8.1 mph - N/A   Clear
12:55 PM 46.0 °F 41.4 °F 31.8 °F 58% 30.46 in 10.0 mi NNW 9.2 mph - N/A   Clear
1:15 PM 46.8 °F - 31.6 °F 56% 30.46 in 10.0 mi NNW 9.2 mph 16.1 mph N/A   Clear
1:35 PM 47.5 °F - 31.3 °F 53% 30.45 in 10.0 mi NE 8.1 mph - N/A   Clear
1:55 PM 47.8 °F - 30.6 °F 51% 30.45 in 10.0 mi NNW 5.8 mph - N/A   Clear
2:15 PM 48.6 °F - 31.1 °F 51% 30.44 in 10.0 mi North 6.9 mph - N/A   Clear
2:35 PM 48.7 °F - 30.4 °F 49% 30.44 in 10.0 mi NNE 4.6 mph - N/A   Clear
2:55 PM 49.1 °F - 30.2 °F 48% 30.44 in 10.0 mi North 6.9 mph - N/A   Clear
3:15 PM 49.1 °F - 30.0 °F 48% 30.44 in 10.0 mi NNE 5.8 mph - N/A   Clear
3:35 PM 49.3 °F - 30.0 °F 48% 30.45 in 10.0 mi North 5.8 mph - N/A   Clear
3:55 PM 49.1 °F - 30.0 °F 48% 30.45 in 10.0 mi NNE 9.2 mph - N/A   Clear
4:15 PM 48.7 °F - 30.6 °F 50% 30.46 in 10.0 mi North 6.9 mph - N/A   Clear
4:35 PM 47.5 °F - 30.2 °F 51% 30.46 in 10.0 mi North 6.9 mph - N/A   Clear
4:55 PM 46.2 °F 42.7 °F 30.9 °F 55% 30.47 in 10.0 mi NNE 6.9 mph - N/A   Clear
5:15 PM 44.2 °F 41.0 °F 31.1 °F 60% 30.47 in 10.0 mi North 5.8 mph - N/A   Clear
5:35 PM 42.1 °F 38.4 °F 31.3 °F 66% 30.47 in 10.0 mi North 5.8 mph - N/A   Clear
5:55 PM 41.7 °F 39.8 °F 32.0 °F 68% 30.48 in 10.0 mi NNE 3.5 mph - N/A   Clear
6:15 PM 40.5 °F 38.4 °F 32.0 °F 72% 30.48 in 10.0 mi NNE 3.5 mph - N/A   Clear
6:35 PM 39.6 °F - 32.5 °F 76% 30.48 in 10.0 mi Calm Calm - N/A   Clear
6:55 PM 36.9 °F - 34.0 °F 89% 30.49 in 10.0 mi Calm Calm - N/A   Clear
7:15 PM 35.6 °F - 34.3 °F 95% 30.50 in 10.0 mi Calm Calm - N/A   Clear
7:35 PM 34.2 °F - 32.9 °F 95% 30.50 in 10.0 mi Calm Calm - N/A   Clear
7:55 PM 35.1 °F 32.2 °F 32.5 °F 91% 30.51 in 10.0 mi NW 3.5 mph - N/A   Clear
8:15 PM 35.6 °F - 33.3 °F 91% 30.52 in 10.0 mi Calm Calm - N/A   Clear
8:35 PM 34.3 °F - 32.5 °F 93% 30.53 in 10.0 mi Calm Calm - N/A   Clear
8:55 PM 33.8 °F - 32.9 °F 96% 30.53 in 10.0 mi Calm Calm - N/A   Clear
9:15 PM 32.2 °F - 32.0 °F 99% 30.53 in 10.0 mi Calm Calm - N/A   Clear
9:35 PM 32.5 °F - 32.2 °F 99% 30.54 in 10.0 mi Calm Calm - N/A   Clear
9:55 PM 32.0 °F - 32.0 °F 100% 30.54 in 10.0 mi Calm Calm - N/A   Clear
10:15 PM 31.6 °F - 31.5 °F 99% 30.54 in 10.0 mi Calm Calm - N/A   Clear
10:35 PM 31.1 °F - 31.1 °F 100% 30.54 in 5.0 mi Calm Calm - N/A   Clear
10:55 PM 30.7 °F - 30.7 °F 100% 30.55 in 7.0 mi Calm Calm - N/A   Clear
11:15 PM 30.6 °F - 30.6 °F 100% 30.55 in 7.0 mi Calm Calm - N/A   Clear
11:35 PM 30.6 °F - 30.6 °F 100% 30.54 in 7.0 mi Calm Calm - N/A   Clear
11:55 PM 30.2 °F - 30.2 °F 100% 30.53 in 7.0 mi Calm Calm - N/A   Clear